Location: McFarlands Corners
(41.4117°N, 81.3382°W)
Time: 14:03:11
(UTC+00:00)

Courier 1B Rocket - Pass Details

Date: 18 February 2026
Orbit: 920 x 1201 km, 28.2° (Epoch: 10 March)

Event Time Altitude Azimuth Distance (km) Brightness Sun altitude
Rises 02:00:08 0° 241° (WSW) 3,562 8.5 -33.9°
Reaches altitude 10° 02:03:09 10° 228° (SW) 2,641 7.6 -34.4°
Enters shadow 02:05:20 18° 211° (SSW) 2,120 6.8 -34.8°
Maximum altitude 02:08:10 25° 175° (S) 1,841 - -35.3°
Drops below altitude 10° 02:13:25 10° 123° (ESE) 2,764 - -36.2°
Sets 02:16:39 0° 111° (ESE) 3,765 - -36.8°
